{"data":{"norad_id":52672,"intl_designator":"2022-053S","name":"STARLINK-4073","alt_names":[],"object_type":"PAYLOAD","status":"ACTIVE","operator":null,"country":"US","launch_date":"2022-05-18","launch_site_code":"AFETR","launch_vehicle":null,"mission":null,"orbit_class":"UNKNOWN","rcs_meters":null,"size_class":null,"mass_kg":null,"dimensions":null,"purposes":["comms"],"wikipedia_slug":null,"has_3d_model":false,"image_url":null,"decayed_at":null,"tle_current":{"epoch":"2026-09-19T19:17:52.061856Z","epoch_age_seconds":126582,"freshness":"FRESH","line1":"1 52672U 22053S   26262.80407479  .00000297  00000+0  36766-4 0  9990","line2":"2 52672  53.1618   2.0514 0001171  82.4766 277.6359 15.08836530240344","mean_motion":15.0883653,"eccentricity":0.0001171,"inclination_deg":53.1618,"raan_deg":2.0514,"arg_perigee_deg":82.4766,"mean_anomaly_deg":277.6359,"bstar":3.6766e-5,"rev_number":24034,"period_min":95.437774163646,"perigee_km":538.94391035068,"apogee_km":540.5640804218,"semimajor_km":6917.8909953862,"source":"CELESTRAK","updated_at":"2026-09-20T09:00:40.103364Z"}}}